Weather History for KTSP - January, 2013

Change the Weather History Date:

Thursday, January 10, 2013

  Actual Average (KWJF) Record (KWJF)
Temperature  
Mean Temperature 32 °F 44 °F  
Max Temperature 37 °F 58 °F 72 °F (2014)
Min Temperature 26 °F 31 °F 14 °F (1954)
Degree Days  
Heating Degree Days 34    
Month to date heating degree days  
Since 1 July heating degree days  
Cooling Degree Days 0    
Month to date cooling degree days  
Year to date cooling degree days  
Moisture  
Dew Point 28 °F    
Average Humidity 89    
Maximum Humidity 100    
Minimum Humidity 69    
Precipitation  
Precipitation 0.14 in 0.05 in 1.56 in (2005)
Month to date precipitation 0.50  
Year to date precipitation 0.50  
Since 1 July precipitation 2.97  
Snow  
Snow 0.00 in - 4.00 in (1949)
Month to date snowfall  
Since 1 July snowfall  
Snow Depth -    
Sea Level Pressure  
Sea Level Pressure 29.93 in    
Wind  
Wind Speed 20 mph (NW)    
Max Wind Speed 25 mph    
Max Gust Speed 33 mph    
Visibility 7 miles    
Events Rain , Snow    
T = Trace of Precipitation, MM = Missing Value Source: NWS Daily Summary

Daily Weather History Graph

Daily Weather History Graph

Search for Another Location

Airport or City:

Trip Planner

Search our weather history database for the weather conditions in past years. The results will help you decide how hot, cold, wet, or windy it might be!

Date:

Astronomy

Jan. 10, 2013 Rise Set
Actual Time 7:02 AM PST 5:00 PM PST
Civil Twilight 6:34 AM PST 5:28 PM PST
Nautical Twilight 6:03 AM PST 5:59 PM PST
Astronomical Twilight 5:32 AM PST 6:30 PM PST
Moon 5:47 AM PST (1/10) 4:13 PM PST (1/10)
Length of Visible Light 10h 53m
Length of Day
9h 58m
Waning Crescent, 1% of the Moon is Illuminated
Jan 10
Waning Crescent
Jan 11
New
Jan 18
First Quarter
Jan 26
Full
Feb 3
Last Quarter

Hourly Weather History & Observations

Time (PST) Temp. Windchill Dew Point Humidity Pressure Visibility Wind Dir Wind Speed Gust Speed Precip Events Conditions
12:15 AM 37.4 °F 26.4 °F 37.4 °F 100% 29.97 in 0.2 mi WNW 23.0 mph 28.8 mph N/A Rain Light Rain
12:35 AM 37.4 °F 26.4 °F 37.4 °F 100% 29.96 in 0.2 mi NW 23.0 mph 29.9 mph N/A Rain Light Rain
12:55 AM 37.4 °F 26.6 °F 37.4 °F 100% 29.95 in 0.2 mi NW 21.9 mph 31.1 mph N/A Rain Light Rain
1:15 AM 37.4 °F 27.5 °F 37.4 °F 100% 29.94 in 1.2 mi NW 18.4 mph 28.8 mph N/A Rain Light Rain
1:35 AM 37.4 °F 26.6 °F 37.4 °F 100% 29.93 in 2.5 mi NW 21.9 mph 25.3 mph N/A Rain Light Rain
1:55 AM 37.4 °F 27.5 °F 37.4 °F 100% 29.92 in 3.0 mi WNW 18.4 mph 23.0 mph N/A   Overcast
2:15 AM 37.4 °F 28.9 °F 37.4 °F 100% 29.91 in 1.8 mi NW 13.8 mph 24.2 mph N/A   Overcast
2:35 AM 37.4 °F 29.3 °F 37.4 °F 100% 29.90 in 0.8 mi WNW 12.7 mph 19.6 mph N/A Rain Light Rain
2:55 AM 37.4 °F 31.4 °F 37.4 °F 100% 29.88 in 3.0 mi WNW 8.1 mph - N/A Rain Light Rain
3:15 AM 37.4 °F 28.2 °F 37.4 °F 100% 29.89 in 5.0 mi NW 16.1 mph 23.0 mph N/A Rain Light Rain
3:35 AM 33.8 °F 25.3 °F 33.8 °F 100% 29.89 in 5.0 mi West 11.5 mph - N/A Rain Light Rain
3:55 AM 32.0 °F 20.5 °F 32.0 °F 100% 29.91 in 1.8 mi WNW 18.4 mph 26.5 mph 0.02 in   Overcast
4:15 AM 32.0 °F 21.6 °F 32.0 °F 100% 29.91 in 2.0 mi WNW 15.0 mph 20.7 mph 0.02 in   Overcast
4:35 AM 32.0 °F 21.6 °F 30.2 °F 93% 29.91 in 3.0 mi WNW 15.0 mph 24.2 mph 0.03 in Snow Light Snow
4:55 AM 30.2 °F 17.8 °F 28.4 °F 93% 29.91 in 2.0 mi NW 19.6 mph 26.5 mph 0.04 in   Overcast
5:15 AM 28.4 °F 14.4 °F 28.4 °F 100% 29.91 in 3.0 mi WNW 23.0 mph 32.2 mph N/A Rain Light Freezing Rain
5:55 AM 28.4 °F 14.4 °F 26.6 °F 93% 29.93 in 2.5 mi WNW 23.0 mph 32.2 mph 0.01 in Rain Light Freezing Rain
6:15 AM 28.4 °F 15.8 °F 26.6 °F 93% 29.93 in 3.0 mi WNW 18.4 mph 27.6 mph N/A Rain Light Freezing Rain
6:35 AM 28.4 °F 15.1 °F 26.6 °F 93% 29.93 in 10.0 mi WNW 20.7 mph 33.4 mph N/A Rain Light Freezing Rain
6:55 AM 28.4 °F 15.1 °F 26.6 °F 93% 29.93 in 10.0 mi WNW 20.7 mph 28.8 mph N/A   Mostly Cloudy
7:15 AM 28.4 °F 15.1 °F 24.8 °F 86% 29.94 in 9.0 mi WNW 20.7 mph 32.2 mph N/A   Overcast
7:35 AM 28.4 °F 13.8 °F 26.6 °F 93% 29.93 in 9.0 mi WNW 25.3 mph 28.8 mph N/A   Overcast
7:55 AM 28.4 °F 15.8 °F 26.6 °F 93% 29.94 in 10.0 mi NW 18.4 mph 26.5 mph N/A   Overcast
8:15 AM 28.4 °F 14.7 °F 26.6 °F 93% 29.94 in 10.0 mi WNW 21.9 mph 27.6 mph N/A   Overcast
8:35 AM 28.4 °F 15.1 °F 24.8 °F 86% 29.95 in 9.0 mi WNW 20.7 mph 27.6 mph N/A Rain Light Freezing Rain
8:55 AM 28.4 °F 13.8 °F 24.8 °F 86% 29.94 in 10.0 mi WNW 25.3 mph 31.1 mph N/A Rain Light Freezing Rain
9:15 AM 28.4 °F 14.7 °F 24.8 °F 86% 29.95 in 5.0 mi WNW 21.9 mph 31.1 mph N/A Rain Light Freezing Rain
9:35 AM 28.4 °F 14.7 °F 24.8 °F 86% 29.95 in 6.0 mi West 21.9 mph 29.9 mph 0.01 in Rain Light Freezing Rain
9:55 AM 30.2 °F 18.1 °F 24.8 °F 80% 29.95 in 10.0 mi WNW 18.4 mph 27.6 mph 0.01 in   Overcast
10:15 AM 30.2 °F 18.1 °F 24.8 °F 80% 29.94 in 10.0 mi WNW 18.4 mph 32.2 mph N/A Rain Light Freezing Rain
10:35 AM 30.2 °F 17.8 °F 24.8 °F 80% 29.94 in 5.0 mi WNW 19.6 mph 31.1 mph N/A Rain Light Freezing Rain
10:55 AM 30.2 °F 17.1 °F 26.6 °F 86% 29.94 in 1.2 mi WNW 21.9 mph 29.9 mph 0.01 in Rain Light Freezing Rain
11:15 AM 30.2 °F 18.5 °F 24.8 °F 80% 29.94 in 10.0 mi WNW 17.3 mph 24.2 mph 0.02 in   Mostly Cloudy
11:35 AM 32.0 °F 19.5 °F 24.8 °F 75% 29.93 in 9.0 mi WNW 21.9 mph 33.4 mph 0.02 in Rain Light Rain
11:55 AM 32.0 °F 19.8 °F 24.8 °F 75% 29.91 in 10.0 mi NW 20.7 mph 27.6 mph 0.02 in   Overcast
12:35 PM 30.2 °F 17.8 °F 24.8 °F 80% 29.90 in 10.0 mi NW 19.6 mph 28.8 mph N/A   Overcast
12:55 PM 32.0 °F 19.5 °F 24.8 °F 75% 29.90 in 10.0 mi WNW 21.9 mph 25.3 mph N/A   Mostly Cloudy
1:15 PM 30.2 °F 17.8 °F 24.8 °F 80% 29.90 in 9.0 mi NW 19.6 mph 28.8 mph N/A Rain Light Freezing Rain
1:35 PM 32.0 °F 20.5 °F 24.8 °F 75% 29.90 in 9.0 mi NW 18.4 mph 27.6 mph N/A Rain Light Rain
1:55 PM 32.0 °F 19.5 °F 24.8 °F 75% 29.90 in 10.0 mi NW 21.9 mph 28.8 mph N/A   Mostly Cloudy
2:15 PM 30.2 °F 17.1 °F 24.8 °F 80% 29.90 in 10.0 mi NW 21.9 mph 27.6 mph N/A   Overcast
2:35 PM 28.4 °F 15.8 °F 24.8 °F 86% 29.90 in 4.0 mi NW 18.4 mph 26.5 mph 0.01 in Rain Light Freezing Rain
2:55 PM 30.2 °F 16.8 °F 24.8 °F 80% 29.90 in 10.0 mi NW 23.0 mph 31.1 mph 0.01 in Rain Light Freezing Rain
3:15 PM 32.0 °F 19.2 °F 23.0 °F 69% 29.90 in 10.0 mi WNW 23.0 mph 32.2 mph N/A Rain Light Rain
3:35 PM 32.0 °F 19.5 °F 24.8 °F 75% 29.89 in 10.0 mi NW 21.9 mph 26.5 mph N/A   Mostly Cloudy
3:55 PM 28.4 °F 14.7 °F 24.8 °F 86% 29.89 in 9.0 mi WNW 21.9 mph 27.6 mph N/A   Mostly Cloudy
4:15 PM 28.4 °F 15.1 °F 23.0 °F 80% 29.89 in 2.5 mi NW 20.7 mph 32.2 mph 0.01 in Snow Light Snow
4:35 PM 28.4 °F 14.7 °F 23.0 °F 80% 29.89 in 10.0 mi NW 21.9 mph 27.6 mph 0.01 in   Overcast
4:55 PM 28.4 °F 14.4 °F 24.8 °F 86% 29.89 in 10.0 mi WNW 23.0 mph 27.6 mph 0.01 in   Overcast
5:15 PM 28.4 °F 14.4 °F 24.8 °F 86% 29.90 in 10.0 mi NW 23.0 mph 32.2 mph N/A   Overcast
5:35 PM 28.4 °F 14.1 °F 26.6 °F 93% 29.90 in 10.0 mi NW 24.2 mph 33.4 mph N/A   Overcast
5:55 PM 28.4 °F 15.4 °F 26.6 °F 93% 29.92 in 10.0 mi NW 19.6 mph 29.9 mph N/A   Overcast
6:15 PM 28.4 °F 14.7 °F 24.8 °F 86% 29.92 in 10.0 mi NW 21.9 mph 26.5 mph N/A   Overcast
6:35 PM 28.4 °F 15.1 °F 24.8 °F 86% 29.93 in 10.0 mi NW 20.7 mph 31.1 mph N/A   Mostly Cloudy
6:55 PM 28.4 °F 15.4 °F 24.8 °F 86% 29.93 in 10.0 mi NW 19.6 mph 29.9 mph N/A Rain Light Freezing Rain
7:15 PM 28.4 °F 15.8 °F 24.8 °F 86% 29.93 in 10.0 mi NW 18.4 mph 27.6 mph N/A   Overcast
7:35 PM 26.6 °F 12.4 °F 26.6 °F 100% 29.95 in 9.0 mi NW 21.9 mph 29.9 mph N/A   Overcast
7:55 PM 26.6 °F 12.4 °F 26.6 °F 100% 29.96 in 10.0 mi NW 21.9 mph 31.1 mph N/A   Overcast
8:15 PM 26.6 °F 13.8 °F 26.6 °F 100% 29.97 in 10.0 mi NW 17.3 mph 25.3 mph N/A   Overcast
8:35 PM 28.4 °F 16.2 °F 26.6 °F 93% 29.98 in 10.0 mi WNW 17.3 mph 23.0 mph N/A   Overcast
9:55 PM 28.4 °F 16.2 °F 24.8 °F 86% 30.02 in 10.0 mi WNW 17.3 mph 26.5 mph N/A   Overcast
10:15 PM 28.4 °F 17.0 °F 24.8 °F 86% 30.02 in 10.0 mi WNW 15.0 mph 24.2 mph N/A   Overcast
10:35 PM 28.4 °F 15.8 °F 24.8 °F 86% 30.01 in 10.0 mi NW 18.4 mph 25.3 mph N/A   Overcast
10:55 PM 28.4 °F 15.4 °F 24.8 °F 86% 30.01 in 3.0 mi WNW 19.6 mph 28.8 mph 0.01 in Rain Light Freezing Rain
11:15 PM 28.4 °F 15.1 °F 24.8 °F 86% 30.01 in 10.0 mi NW 20.7 mph 33.4 mph N/A Rain Light Freezing Rain
11:35 PM 26.6 °F 12.4 °F 24.8 °F 93% 30.02 in 10.0 mi NW 21.9 mph 28.8 mph N/A   Overcast
11:55 PM 26.6 °F 12.4 °F 24.8 °F 93% 30.01 in 10.0 mi NW 21.9 mph 27.6 mph N/A   Overcast